User: anonymous   Login
Location: McDonald Observatory
(30.6717°N, 104.0221°W)
Time: 04:18:39
(UTC-05:00)
Language:

Cosmos 1484 Rocket - Orbit

View from above orbital plane
View from above orbital plane
View from above satellite
View from above satellite

Ground track
Ground track

The orbit data is extracted from the following two-line orbital elements,

1 14208U 83075B   16211.49322452  .00000183  00000-0  14900-4 0  9990
2 14208  97.3536 229.1824 0040344 161.8916 198.3761 15.10001888798804
Epoch (UTC): 29 July 2016 11:50:14
Eccentricity: 0.0040344
inclination: 97.3536°
perigee height: 508 km
apogee height: 564 km
right ascension of ascending node: 229.1824°
argument of perigee: 161.8916°
revolutions per day: 15.10001888
mean anomaly at epoch: 198.3761°
orbit number at epoch: 79880

The dashed part of the orbit path shows where the satellite is in the earth's shadow,  

DLR